Location: Nitra
(0.0000°N, 18.0833°E)
Time: 00:00:30
(UTC+02:00)

Hubble Space Telescope - Pass Details

Date: 05 February 2023
Orbit: 527 x 530 km, 28.5° (Epoch: 28 March)

Event Time Altitude Azimuth Distance (km) Brightness Sun altitude
Exits shadow 05:30:46 - 328° (NNW) 2,463 3.7 -7.4°
Reaches altitude 10° 05:33:04 10° 346° (NNW) 1,761 3.1 -6.9°
Maximum altitude 05:35:49 17° 28° (NNE) 1,361 3.0 -6.2°
Drops below altitude 10° 05:38:35 10° 71° (ENE) 1,766 4.4 -5.5°
Sets 05:41:26 0° 91° (E) 2,658 6.2 -4.9°
